#timestamp,LO_Frequency,Hit,StdDev 
1710086415.2,286047000.4,N
1710086435.0,286047000.8,N
1710086435.9,286047000.8,N
1710086455.7,286046999.0,N
1710086475.6,286046998.2,N
1710086495.4,286046999.1,N
1710086515.3,286046998.2,N
1710086535.1,286047000.4,N
1710086555.8,286047001.0,N
1710086575.7,286047000.8,N
1710086595.5,286047000.9,N
1710086615.4,286046998.5,N
1710086635.2,286046998.8,N
1710086655.0,286046998.6,N
1710086655.9,286046998.6,N
1710086675.8,286046998.1,N
1710086695.6,286047000.7,N
1710086715.5,286046998.6,N
1710086735.3,286047000.8,N
1710086755.1,286046998.4,N
1710086775.9,286046998.2,N
1710086795.7,286046998.4,N
1710086815.6,286046998.1,N
1710086835.4,286047000.8,N
1710086855.2,286047001.1,N
1710086875.1,286046999.0,N
1710086876.0,286046999.0,N
1710086895.8,286046998.3,N
1710086915.7,286046998.5,N
1710086935.5,286047000.9,N
1710086955.3,286047000.1,N
1710086975.2,286046999.8,N
1710086995.0,286047002.8,N
1710086995.9,286047002.8,N
1710087015.7,286047000.6,N
1710087035.6,286047000.7,N
1710087055.4,286047000.8,N
1710087075.3,286047000.0,N
1710087095.1,286047002.0,N
1710087115.8,286047001.5,N
1710087135.7,286047002.0,N
1710087155.5,286047002.0,N
1710087175.4,286046999.7,N
1710087195.2,286047001.5,N
1710087215.0,286046999.7,N
1710087215.9,286046999.7,N
1710087235.8,286047002.8,N
1710087255.6,286047001.0,N
1710087275.5,286047000.1,N
1710087295.3,286047000.2,N
1710087315.1,286047001.0,N
1710087335.9,286046998.1,N
1710087355.7,286046999.8,N
1710087375.6,286046999.7,N
1710087395.4,286047000.0,N
1710087415.2,286047004.4,Y
1710087435.1,286047004.4,P
1710087436.0,286047004.4,N
1710087455.8,286047004.0,N
1710087475.7,286047002.6,N
1710087495.5,286047004.3,N
1710087515.3,286047004.2,N
1710087535.2,286047004.4,Y
1710087555.0,286047000.5,P
1710087555.9,286047000.5,N
1710087575.8,286047001.0,N
1710087595.6,286046998.9,N
1710087615.4,286046998.2,N
1710087635.3,286046998.4,N
1710087655.1,286046998.6,N
1710087675.8,286046999.4,N
1710087695.7,286046999.0,N
1710087715.5,286046998.4,N
1710087735.4,286046999.4,N
1710087755.2,286046996.6,N
1710087775.0,286046996.6,N
1710087776.0,286046996.6,N
1710087795.8,286046996.9,N
1710087815.6,286046996.7,N
1710087835.5,286046997.8,N
1710087855.3,286046997.8,N
1710087875.1,286046997.8,N
1710087895.9,286046997.7,N
1710087915.7,286046997.7,N
1710087935.6,286046997.5,N
1710087955.4,286046997.2,N
1710087975.2,286046995.0,Y
1710087995.1,286046996.6,P
1710087996.0,286046996.6,P
1710088015.8,286046998.4,N
1710088035.7,286046997.1,Y
1710088055.5,286046998.2,P
1710088075.3,286047002.7,P
1710088095.2,286047000.0,N
1710088115.9,286047000.9,N
1710088135.7,286047002.4,N
1710088155.6,286047002.1,N
1710088175.4,286047001.5,N
1710088195.3,286047002.7,N
1710088215.1,286047002.5,N
1710088216.0,286047002.5,N
1710088235.8,286047002.5,N
1710088255.7,286047001.8,N
1710088275.5,286047001.7,N
1710088295.3,286047004.2,N
1710088315.2,286047003.9,N
1710088335.0,286047002.5,N
1710088335.9,286047002.5,N
1710088355.8,286047002.5,N
1710088375.6,286047002.2,N
1710088395.4,286047004.3,N
1710088415.3,286047003.9,N
1710088435.1,286047003.2,N
1710088455.8,286047003.7,N
1710088475.7,286047003.9,N
1710088495.5,286047003.9,N
1710088515.4,286047004.2,N
1710088535.2,286047001.4,N
1710088555.0,286047003.8,N
1710088555.9,286047003.8,N
1710088575.8,286047004.0,N
1710088595.6,286047004.4,Y
1710088615.4,286046998.4,P
1710088635.3,286047001.0,N
1710088655.1,286047000.6,N
1710088675.9,286047000.9,N
1710088695.7,286046998.1,N
1710088715.5,286046998.8,N
1710088735.4,286046996.7,N
1710088755.2,286047001.1,N
1710088775.0,286047000.3,N
1710088776.0,286047000.3,N
1710088795.8,286046998.1,N
1710088815.6,286046999.1,N
1710088835.5,286046996.6,N
1710088855.3,286046996.9,N
1710088875.1,286046999.5,N
1710088895.9,286046996.6,N
1710088915.7,286046999.1,N
1710088935.6,286046997.2,N
1710088955.4,286046998.6,N
1710088975.2,286046998.6,N
1710088995.1,286047001.1,N
1710088996.0,286047001.1,N
1710089015.8,286046998.4,N
1710089035.6,286046997.3,N
1710089055.5,286046999.5,N
1710089075.3,286046997.8,N
1710089095.2,286046999.6,N
1710089115.9,286046998.9,N
1710089135.7,286047000.9,N
1710089155.6,286046998.6,N
1710089175.4,286047001.1,N
1710089195.2,286046998.6,N
1710089215.1,286046998.3,N
1710089216.0,286046998.3,N
1710089235.8,286046998.7,N
1710089255.7,286047001.1,N
1710089275.5,286047000.9,N
1710089295.3,286047000.8,N
1710089315.2,286047000.5,N
1710089335.0,286047000.8,N
1710089335.9,286047000.8,N
1710089355.7,286047000.7,N
1710089375.6,286046998.2,N
1710089395.4,286046998.1,N
1710089415.3,286046998.1,N
1710089435.1,286047000.8,N
1710089436.0,286047000.8,N
1710089455.8,286046999.5,N
1710089475.7,286046998.9,N
1710089495.5,286046998.6,N
1710089515.3,286046999.3,N
1710089535.2,286046997.0,N
1710089555.0,286046996.5,N
1710089555.9,286046996.5,N
1710089575.8,286046999.4,N
1710089595.6,286046999.3,N
1710089615.4,286046998.4,N
1710089635.3,286047001.0,N
1710089655.1,286047000.0,N
1710089675.9,286047000.8,N
1710089695.7,286046999.0,N
1710089715.5,286046997.1,N
1710089735.4,286046996.5,N
1710089755.2,286046996.6,N
1710089775.0,286046999.1,N
1710089775.9,286046999.1,N
1710089795.8,286046997.1,N
1710089815.6,286046996.7,N
1710089835.5,286046997.2,N
1710089855.3,286046997.0,N
1710089875.1,286046997.0,N
1710089895.9,286046998.1,N
1710089915.7,286046998.9,N
1710089935.5,286046996.7,N
1710089955.4,286046997.8,N
1710089975.2,286046997.7,N
1710089995.1,286046996.7,N
1710089996.0,286046996.7,N
